SCP
-0 -0 -0 -0 -0 -0 -0 -0 -0 0 0 0 0 -0 -0 -0 -0 -0 -0 -0 -0 0 0 0 0 0 0 0 0 0 -0 0 0 0 0 0 0 0 0 0 0 0 0 0 0 0 0
-0 -0 -0 -0 -0 -0 0 0 0 -0 -0 -0 -0 -0 -0 -0 -0 -0 -0 -0 -0 -0 -0 0 0 0 0 0 0 0 -0 -0 0 0 0 0 0 0 0 0 0 0 0 0 0 0 0
-0 0 0 -0 -0 -0 0 0 0 0 -0 0 -0 -0 -0 -0 -0 -0 0 0 0 0 0 -0 -0 -0 0 0 0 -0 -0 0 0 0 0 0 0 0 0 0 0 0 0 0 0 0 0
0 0 0 0 0 0 -0 0 0 0 -0 -0 -0 -0 -0 -0 -0 -0 -0 -0 0 0 -0 -0 -0 -0 0 0 0 0 0 0 0 0 0 0 0 0 0 0 0 0 0 0 0 0 0
-0 0 0 0 0 0 0 0 0 -0 -0 -0 -0 -0 -0 -0 -0 -0 -0 -0 -0 0 -0 -0 -0 0 0 0 -0 0 0 0 0 0 0 0 0 0 0 0 0 0 0 0 0 0 0
-0 -0 -0 -0 -0 0 -0 0 0 -0 -0 -0 -0 -0 -0 -0 -0 -0 -0 -0 0 0 0 0 -0 -0 -0 0 0 -0 -0 0 0 0 0 -0 0 0 0 0 0 0 0 0 0 0 0
-0 -0 -0 -0 -0 -0 -0 -0 0 -0 -0 -0 -0 -0 -0 -0 -0 -0 -0 0 0 0 0 -0 -0 0 0 0 0 -0 0 0 -0 -0 0 0 0 0 0 0 0 0 0 0 0 0 0
0 -0 -0 -0 -0 -0 -0 -0 0 0 -0 -0 -0 -0 -0 -0 -0 0 0 0 0 0 -0 -0 0 0 0 0 0 0 0 0 0 0 0 0 0 -0 0 0 0 0 0 0 0 0 0
0 0 0 0 0 0 0 0 0 0 -0 -0 -0 -0 -0 -0 0 -0 0 0 0 0 0 0 0 -0 0 0 0 0 0 0 0 0 0 0 0 0 0 0 0 0 0 0 0 0 0
0 0 0 0 0 0 0 0 0 0 0 0 -0 -0 -0 0 -0 -0 0 0 0 0 -0 0 0 0 0 0 -0 0 0 0 -0 -0 0 0 0 0 0 0 0 0 0 0 0 0 0
0 0 0 0 0 0 0 0 0 0 0 -0 -0 -0 -0 -0 -0 0 0 0 0 -0 0 0 0 0 0 0 0 0 0 0 -0 -0 -0 -0 -0 0 0 0 0 0 0 0 0 0 0
0 0 0 0 0 0 0 0 0 0 0 -0 -0 -0 0 0 0 0 0 -0 0 0 0 0 0 0 0 0 0 0 0 0 0 0 -0 -0 0 0 0 0 0 0 0 0 0 0 0
0 0 0 0 0 0 0 0 0 0 0 -0 -0 -0 -0 -0 0 0 -0 0 0 0 0 0 0 0 0 -0 0 0 0 -0 -0 0 0 0 0 0 0 0 0 0 0 0 0 0 0
0 0 0 0 0 0 0 0 0 0 0 -0 -0 -0 0 0 -0 0 -0 -0 0 0 0 0 0 0 -0 0 0 0 0 0 0 0 0 0 0 0 0 0 0 0 -0 0 0 0 0
0 0 0 0 0 0 0 0 0 0 0 0 -0 0 0 0 0 0 0 -0 0 0 0 0 0 0 0 0 0 0 -0 0 0 0 0 0 0 0 0 0 0 0 0 0 0 -0 0
0 0 0 0 0 0 0 0 0 0 0 -0 0 0 0 0 0 0 0 -0 -0 0 0 0 0 0 0 0 0 0 0 0 0 0 0 0 0 0 0 0 -0 -0 0 0 0 0 0
0 0 0 0 0 0 0 0 0 0 0 -0 0 0 0 0 0 0 0 0 0 0 0 0 0 0 0 0 0 0 -0 0 0 0 0 0 0 -0 0 -0 -0 0 -0 0 0 0 0
0 0 0 0 0 0 0 0 0 0 0 0 0 0 0 -0 0 0 0 0 0 0 0 0 0 0 0 0 0 0 -0 -0 0 0 0 0 0 0 -0 -0 0 -0 0 -0 0 0 0
0 0 0 0 0 0 0 0 0 0 0 0 0 0 0 0 0 0 0 0 0 0 0 0 0 0 0 0 0 0 -0 -0 0 0 0 0 0 0 -0 -0 0 0 0 0 0 -0 -0
0 0 0 0 0 0 0 0 0 0 0 0 0 0 0 0 0 0 0 0 0 0 0 0 0 0 0 0 0 0 0 0 0 0 0 0 0 0 0 0 0 -0 -0 -0 -0 -0 -0
-0 0 0 0 0 0 0 0 0 0 0 0 0 0 0 0 0 0 0 0 0 0 0 0 0 0 0 0 -0 0 -0 -0 0 -0 0 0 0 0 0 -0 0 -0 -0 -0 -0 -0 -0
-0 -0 0 0 0 0 0 0 0 0 0 0 0 0 0 0 0 0 0 0 0 0 0 0 0 0 0 0 0 -0 0 -0 0 0 0 0 0 -0 -0 -0 -0 -0 -0 -0 -0 -0 -0
0 0 0 0 0 0 0 0 0 0 0 0 0 0 0 0 0 0 0 0 0 0 0 0 0 -0 -0 -0 -0 0 0 -0 -0 0 -0 0 0 0 -0 -0 -0 -0 -0 -0 -0 0 0
0 0 0 0 0 0 0 0 0 0 0 0 0 0 0 0 0 0 0 0 0 0 0 0 0 0 -0 0 -0 -0 -0 -0 -0 0 0 0 0 0 0 0 0 -0 0 -0 -0 0 0
0 0 0 0 0 0 0 0 0 0 0 0 0 0 0 0 0 0 0 0 0 0 0 0 0 0 -0 0 -0 0 -0 0 0 0 0 0 0 0 0 0 0 0 0 -0 -0 0 0
0 0 0 0 0 0 0 0 0 0 0 0 0 0 0 0 0 0 0 0 0 0 0 0 0 0 -0 0 -0 -0 -0 -0 -0 0 0 0 0 0 0 0 0 0 0 0 0 -0 0
0 0 0 0 0 0 0 0 0 0 0 0 0 0 0 0 0 0 0 0 0 0 0 0 0 0 0 0 0 0 0 0 -0 -0 0 0 0 0 0 0 0 0 -0 0 0 0 -0
0 0 0 0 0 0 0 0 0 0 0 0 0 0 0 0 0 0 0 0 0 0 0 0 0 0 0 0 0 0 0 -0 -0 -0 -0 0 0 0 0 0 0 -0 0 0 0 0 0
0 0 0 0 0 0 0 0 0 0 0 0 0 0 0 0 0 0 -0 -0 -0 0 0 0 0 0 0 0 0 0 0 -0 -0 -0 0 0 0 0 0 0 0 0 0 0 0 0 -0
Wind_Speed_500mb
37 37 36 36 37 38 39 39 37 36 36 37 36 32 29 28 28 26 25 25 26 28 29 28 23 14 11 14 4 16 24 24 20 12 19 19 26 34 40 43 52 58 56 73 73 72 72
38 39 40 41 42 42 43 41 39 37 37 37 36 36 34 32 30 28 27 27 30 33 28 19 18 13 15 27 6 8 13 13 13 14 15 16 21 31 44 46 44 53 64 66 75 71 63
39 39 39 39 41 42 44 43 41 40 40 40 39 37 35 33 31 28 27 30 34 33 24 11 12 14 21 11 7 10 12 15 11 12 15 17 21 21 28 34 46 53 52 48 56 58 55
40 40 40 41 43 45 46 45 44 44 43 44 43 43 40 35 32 28 26 27 31 27 11 8 7 10 17 1 4 9 17 15 12 21 24 23 20 27 32 38 54 39 41 42 46 50 58
41 41 42 43 44 45 46 47 47 48 48 47 46 45 41 35 34 29 25 27 22 18 3 6 3 6 15 6 4 17 20 19 26 24 23 25 22 28 30 27 30 32 40 47 51 49 43
42 42 43 44 45 46 47 48 49 49 49 51 52 49 44 38 30 24 21 26 29 20 6 9 18 18 20 11 16 20 20 21 22 26 28 27 31 26 25 26 32 34 41 40 51 49 49
44 45 47 49 50 52 52 51 50 50 50 51 53 53 50 37 26 17 18 15 10 3 17 29 29 28 22 7 18 15 16 18 24 27 27 24 23 26 34 33 39 39 42 49 49 49 52
44 45 46 47 49 53 56 55 52 55 53 52 55 56 48 32 19 8 11 16 15 21 24 34 30 22 17 12 15 17 17 19 30 25 26 25 27 27 28 31 35 37 44 51 50 46 44
43 46 48 49 48 54 58 61 58 55 53 52 53 53 38 26 14 5 8 9 17 23 18 11 7 15 14 11 22 29 12 24 27 31 26 24 31 35 33 36 41 40 42 45 47 42 42
43 46 48 49 49 52 55 58 60 60 57 52 52 50 32 10 7 10 3 16 20 19 10 16 17 7 9 9 28 11 18 16 24 30 31 26 34 35 36 39 32 39 38 42 43 40 30
47 49 51 49 49 52 55 57 62 64 65 61 51 42 23 5 6 12 15 21 21 6 7 10 17 9 9 16 22 18 5 16 25 28 26 29 30 30 34 35 35 45 44 46 46 43 43
48 51 53 54 54 54 55 59 58 65 64 63 53 33 5 11 10 11 19 22 9 9 4 11 3 9 17 22 28 13 22 26 41 35 33 39 24 27 18 33 41 38 41 49 46 36 37
50 54 56 57 59 59 59 58 61 64 63 63 49 26 8 5 12 17 23 17 11 11 7 6 12 20 26 31 14 5 14 24 20 20 25 31 22 7 11 20 43 29 28 21 33 30 35
53 57 58 58 58 59 61 60 61 65 66 62 40 15 8 7 11 16 20 19 10 20 17 28 20 31 36 3 11 17 27 25 17 24 23 25 28 16 6 20 35 32 31 14 27 30 33
59 57 58 57 57 58 58 64 65 67 66 63 40 13 6 2 10 13 21 11 7 20 24 21 28 29 15 15 8 27 28 18 14 17 29 27 38 34 38 34 24 35 29 27 22 43 38
61 58 56 55 56 57 60 65 69 72 69 55 38 11 13 13 7 11 15 21 28 15 19 22 25 18 23 32 29 26 25 17 16 24 23 31 38 36 48 46 29 49 35 29 14 12 32
58 58 56 57 54 57 62 68 71 70 70 48 21 11 7 4 8 16 13 24 23 30 27 12 25 27 28 29 28 28 34 29 27 30 34 31 27 36 36 38 38 28 32 19 10 9 12
57 57 56 52 53 61 67 67 69 67 70 48 15 6 3 5 13 11 12 16 16 16 18 20 15 24 19 28 31 31 33 27 33 30 31 23 13 30 41 47 35 18 30 11 16 20 22
56 53 52 51 56 63 67 68 65 63 59 52 21 20 5 2 6 14 22 24 27 12 18 26 22 20 24 27 27 16 30 38 29 32 12 11 10 24 27 28 17 16 41 35 28 17 26
53 49 48 52 57 64 67 67 62 58 40 28 16 8 3 12 6 13 21 26 24 16 23 13 15 22 23 26 27 26 39 36 23 22 36 18 24 29 28 37 20 21 42 42 34 24 35
52 48 51 56 61 64 63 62 57 52 27 22 13 11 12 12 24 28 25 24 28 19 22 20 19 24 21 26 32 36 30 39 34 34 21 5 16 30 38 43 43 45 47 50 43 44 39
53 50 54 59 60 58 57 53 48 45 25 14 18 16 22 39 27 26 22 22 24 23 22 28 30 31 29 26 30 48 43 35 30 28 15 10 15 28 43 41 43 48 45 48 50 44 46
51 51 57 58 56 55 50 46 40 34 28 13 17 13 13 24 20 21 16 21 25 30 16 26 30 32 37 36 54 60 61 60 47 36 24 11 12 19 41 37 31 29 19 36 40 38 20
45 52 55 54 55 54 48 42 36 27 16 10 16 16 10 12 20 21 36 29 25 26 32 40 39 36 52 44 59 60 63 61 49 25 23 12 5 5 17 23 21 16 22 34 38 38 35
47 50 52 52 53 51 47 43 36 28 20 12 15 13 9 14 33 34 34 38 46 35 32 36 40 26 31 45 24 23 25 5 13 20 21 18 2 7 8 11 27 25 17 21 31 47 36
48 49 51 51 52 48 44 42 38 31 25 16 13 22 20 12 8 41 41 36 16 22 27 25 37 32 33 17 17 16 11 12 9 4 19 20 13 6 9 9 7 11 19 25 28 31 29
49 49 50 50 50 48 45 41 39 34 29 22 21 18 25 25 46 27 31 34 42 25 15 38 27 24 15 7 6 9 11 17 9 8 8 9 7 14 19 10 9 5 3 4 5 15 49
46 49 48 50 50 49 47 42 38 35 30 25 24 18 29 42 67 66 50 45 31 24 10 27 23 12 17 7 6 8 8 10 15 20 23 6 6 6 4 9 8 19 11 5 13 51 57
46 48 48 50 51 50 48 44 39 32 27 27 31 18 28 42 56 71 69 67 66 59 49 16 16 16 10 6 7 10 14 9 22 11 23 9 8 7 10 8 25 35 25 35 41 46 42
Wind_Direction_500mb
22 20 17 13 9 6 2 360 359 0 358 354 349 344 337 331 327 325 326 328 329 330 332 328 337 348 328 259 27 335 359 353 354 314 278 274 266 259 253 251 247 253 251 250 248 248 260
22 18 14 12 10 9 6 0 356 355 355 352 348 346 340 332 327 321 319 327 330 331 332 321 320 314 324 280 17 342 332 333 314 302 300 279 271 271 284 277 264 263 256 258 259 259 250
23 20 17 14 11 10 9 5 2 354 351 349 346 343 338 333 324 319 313 319 326 328 328 314 302 294 292 284 348 326 323 323 309 314 302 291 300 295 291 297 262 266 273 276 263 264 256
18 16 13 10 8 7 5 2 1 357 353 349 346 342 337 331 326 318 312 315 325 327 331 319 275 278 274 167 287 340 329 315 308 306 292 286 287 284 277 275 292 282 273 265 254 247 254
14 11 9 7 5 2 360 358 356 353 351 349 347 342 336 328 325 317 312 312 314 327 313 297 244 250 267 250 300 321 324 310 311 307 299 283 269 271 285 263 267 243 257 260 266 257 256
13 9 6 3 360 357 355 352 351 350 347 346 345 343 336 327 322 318 316 304 298 297 280 263 256 263 253 240 326 311 315 304 307 301 298 262 241 257 243 247 254 267 257 252 252 256 262
12 10 8 6 3 358 352 350 349 347 345 343 343 342 338 328 321 325 347 334 301 241 240 267 287 271 286 282 304 303 320 311 311 302 274 306 300 273 283 279 278 299 294 284 282 292 298
10 8 6 5 5 5 4 357 351 350 345 344 342 342 340 335 326 326 335 335 7 322 304 278 264 263 267 270 289 313 316 310 322 302 302 279 262 266 287 287 276 281 282 279 286 292 291
2 2 1 0 358 358 359 0 359 353 349 343 341 341 342 344 350 44 352 346 333 327 288 289 250 221 233 234 281 311 314 309 301 310 300 302 303 307 298 291 286 275 273 278 285 291 281
353 352 353 353 353 351 352 354 355 358 353 346 340 341 343 347 20 350 250 333 328 322 276 136 192 191 243 255 265 324 297 311 303 299 303 300 294 284 281 272 273 273 273 277 281 280 271
347 345 345 347 347 346 346 348 350 352 351 350 339 341 353 338 307 323 330 325 315 286 260 153 125 127 256 242 289 279 284 279 280 292 288 289 291 293 289 307 333 310 313 304 286 279 277
350 348 347 344 342 341 343 343 346 347 347 346 340 336 13 33 350 336 328 325 317 244 268 154 163 242 275 307 292 319 272 276 258 250 259 267 278 276 332 310 303 299 290 283 289 274 263
351 350 348 345 344 344 344 342 342 344 344 341 341 328 271 170 341 320 326 303 248 261 133 101 348 325 316 284 345 317 297 285 285 311 297 310 320 329 17 301 321 281 293 287 258 252 262
350 349 349 349 350 349 348 348 344 342 345 342 344 333 229 228 305 319 321 275 274 298 1 6 330 313 270 54 313 259 271 281 317 334 314 322 307 353 168 242 266 273 279 270 282 261 274
350 348 349 350 352 351 351 350 348 344 344 344 343 333 315 306 283 321 300 260 299 5 352 334 314 288 333 324 266 308 303 326 359 322 303 302 294 295 295 300 300 291 287 239 241 270 263
348 349 349 349 348 351 351 348 347 345 344 347 342 312 263 205 298 299 267 263 287 18 351 326 301 289 330 322 315 323 322 337 341 322 332 310 303 301 300 299 278 267 290 294 280 302 279
348 348 347 346 346 350 351 350 349 346 344 347 352 267 154 207 289 251 261 293 352 354 325 309 319 315 314 318 325 323 313 324 2 341 331 317 313 307 304 283 282 300 259 261 10 230 261
347 346 345 347 350 351 351 352 354 353 347 1 333 305 188 324 260 237 257 349 314 299 314 271 270 309 309 312 311 305 300 311 331 329 315 337 293 288 287 286 310 192 283 256 280 292 288
345 345 345 347 347 349 351 349 352 355 351 350 320 300 204 322 312 335 334 321 309 352 322 320 308 320 330 299 299 300 301 300 333 328 322 351 287 308 297 281 41 352 311 306 297 284 264
343 344 344 342 343 345 346 347 350 355 356 359 311 322 319 295 269 306 338 314 323 316 288 309 311 290 307 306 307 296 298 305 320 290 298 279 266 259 277 289 286 250 276 276 284 283 283
340 339 339 340 339 341 344 345 349 0 11 21 320 9 16 309 334 321 298 299 302 315 322 303 301 308 299 307 305 295 293 300 307 310 301 264 264 276 279 283 278 274 264 276 243 246 265
338 336 339 338 339 341 345 346 349 3 34 24 354 353 335 296 311 300 288 306 328 322 338 309 303 308 319 295 274 285 302 305 308 304 285 320 275 293 285 281 279 275 274 272 271 271 268
338 338 340 341 342 342 346 348 347 359 26 12 356 346 337 299 290 308 332 329 311 312 308 308 322 310 299 295 290 301 297 289 281 277 293 283 286 290 277 292 290 291 304 307 328 323 349
340 339 341 342 343 343 345 347 345 348 0 353 328 321 313 290 329 321 321 299 290 312 292 291 296 284 283 298 302 295 278 267 253 243 198 213 223 234 286 295 270 309 347 330 318 310 304
338 337 338 339 341 342 343 343 341 338 332 315 304 295 296 281 310 299 343 329 312 306 314 300 291 308 308 301 298 294 299 170 226 227 214 196 180 279 281 287 287 295 358 344 338 314 352
335 335 334 336 339 338 339 339 337 332 327 314 297 283 276 289 268 325 312 311 343 324 319 324 326 317 297 286 287 283 305 308 335 40 166 162 206 203 298 275 281 53 38 359 343 281 23
333 333 332 333 336 336 336 334 332 328 323 313 288 273 282 274 281 292 301 305 300 303 282 294 343 318 300 300 291 278 303 332 335 358 292 258 212 228 260 262 260 139 309 191 231 315 325
330 330 331 330 332 333 333 332 327 325 323 317 290 264 268 274 282 282 278 283 285 267 254 292 320 16 302 279 305 339 323 326 317 313 297 282 271 264 283 276 299 265 25 212 290 296 299
327 326 327 326 328 331 330 328 326 323 323 317 300 302 278 274 270 288 285 276 265 262 265 249 256 317 280 317 344 326 317 299 316 297 317 317 287 261 205 252 319 333 309 295 294 278 291
Wind_Speed_850mb
37 37 36 36 37 38 39 39 37 36 36 37 36 32 29 28 28 26 25 25 26 28 29 28 23 14 11 14 4 16 24 24 20 12 19 19 26 34 40 43 52 58 56 73 73 72 72
38 39 40 41 42 42 43 41 39 37 37 37 36 36 34 32 30 28 27 27 30 33 28 19 18 13 15 27 6 8 13 13 13 14 15 16 21 31 44 46 44 53 64 66 75 71 63
39 39 39 39 41 42 44 43 41 40 40 40 39 37 35 33 31 28 27 30 34 33 24 11 12 14 21 11 7 10 12 15 11 12 15 17 21 21 28 34 46 53 52 48 56 58 55
40 40 40 41 43 45 46 45 44 44 43 44 43 43 40 35 32 28 26 27 31 27 11 8 7 10 17 1 4 9 17 15 12 21 24 23 20 27 32 38 54 39 41 42 46 50 58
41 41 42 43 44 45 46 47 47 48 48 47 46 45 41 35 34 29 25 27 22 18 3 6 3 6 15 6 4 17 20 19 26 24 23 25 22 28 30 27 30 32 40 47 51 49 43
42 42 43 44 45 46 47 48 49 49 49 51 52 49 44 38 30 24 21 26 29 20 6 9 18 18 20 11 16 20 20 21 22 26 28 27 31 26 25 26 32 34 41 40 51 49 49
44 45 47 49 50 52 52 51 50 50 50 51 53 53 50 37 26 17 18 15 10 3 17 29 29 28 22 7 18 15 16 18 24 27 27 24 23 26 34 33 39 39 42 49 49 49 52
44 45 46 47 49 53 56 55 52 55 53 52 55 56 48 32 19 8 11 16 15 21 24 34 30 22 17 12 15 17 17 19 30 25 26 25 27 27 28 31 35 37 44 51 50 46 44
43 46 48 49 48 54 58 61 58 55 53 52 53 53 38 26 14 5 8 9 17 23 18 11 7 15 14 11 22 29 12 24 27 31 26 24 31 35 33 36 41 40 42 45 47 42 42
43 46 48 49 49 52 55 58 60 60 57 52 52 50 32 10 7 10 3 16 20 19 10 16 17 7 9 9 28 11 18 16 24 30 31 26 34 35 36 39 32 39 38 42 43 40 30
47 49 51 49 49 52 55 57 62 64 65 61 51 42 23 5 6 12 15 21 21 6 7 10 17 9 9 16 22 18 5 16 25 28 26 29 30 30 34 35 35 45 44 46 46 43 43
48 51 53 54 54 54 55 59 58 65 64 63 53 33 5 11 10 11 19 22 9 9 4 11 3 9 17 22 28 13 22 26 41 35 33 39 24 27 18 33 41 38 41 49 46 36 37
50 54 56 57 59 59 59 58 61 64 63 63 49 26 8 5 12 17 23 17 11 11 7 6 12 20 26 31 14 5 14 24 20 20 25 31 22 7 11 20 43 29 28 21 33 30 35
53 57 58 58 58 59 61 60 61 65 66 62 40 15 8 7 11 16 20 19 10 20 17 28 20 31 36 3 11 17 27 25 17 24 23 25 28 16 6 20 35 32 31 14 27 30 33
59 57 58 57 57 58 58 64 65 67 66 63 40 13 6 2 10 13 21 11 7 20 24 21 28 29 15 15 8 27 28 18 14 17 29 27 38 34 38 34 24 35 29 27 22 43 38
61 58 56 55 56 57 60 65 69 72 69 55 38 11 13 13 7 11 15 21 28 15 19 22 25 18 23 32 29 26 25 17 16 24 23 31 38 36 48 46 29 49 35 29 14 12 32
58 58 56 57 54 57 62 68 71 70 70 48 21 11 7 4 8 16 13 24 23 30 27 12 25 27 28 29 28 28 34 29 27 30 34 31 27 36 36 38 38 28 32 19 10 9 12
57 57 56 52 53 61 67 67 69 67 70 48 15 6 3 5 13 11 12 16 16 16 18 20 15 24 19 28 31 31 33 27 33 30 31 23 13 30 41 47 35 18 30 11 16 20 22
56 53 52 51 56 63 67 68 65 63 59 52 21 20 5 2 6 14 22 24 27 12 18 26 22 20 24 27 27 16 30 38 29 32 12 11 10 24 27 28 17 16 41 35 28 17 26
53 49 48 52 57 64 67 67 62 58 40 28 16 8 3 12 6 13 21 26 24 16 23 13 15 22 23 26 27 26 39 36 23 22 36 18 24 29 28 37 20 21 42 42 34 24 35
52 48 51 56 61 64 63 62 57 52 27 22 13 11 12 12 24 28 25 24 28 19 22 20 19 24 21 26 32 36 30 39 34 34 21 5 16 30 38 43 43 45 47 50 43 44 39
53 50 54 59 60 58 57 53 48 45 25 14 18 16 22 39 27 26 22 22 24 23 22 28 30 31 29 26 30 48 43 35 30 28 15 10 15 28 43 41 43 48 45 48 50 44 46
51 51 57 58 56 55 50 46 40 34 28 13 17 13 13 24 20 21 16 21 25 30 16 26 30 32 37 36 54 60 61 60 47 36 24 11 12 19 41 37 31 29 19 36 40 38 20
45 52 55 54 55 54 48 42 36 27 16 10 16 16 10 12 20 21 36 29 25 26 32 40 39 36 52 44 59 60 63 61 49 25 23 12 5 5 17 23 21 16 22 34 38 38 35
47 50 52 52 53 51 47 43 36 28 20 12 15 13 9 14 33 34 34 38 46 35 32 36 40 26 31 45 24 23 25 5 13 20 21 18 2 7 8 11 27 25 17 21 31 47 36
48 49 51 51 52 48 44 42 38 31 25 16 13 22 20 12 8 41 41 36 16 22 27 25 37 32 33 17 17 16 11 12 9 4 19 20 13 6 9 9 7 11 19 25 28 31 29
49 49 50 50 50 48 45 41 39 34 29 22 21 18 25 25 46 27 31 34 42 25 15 38 27 24 15 7 6 9 11 17 9 8 8 9 7 14 19 10 9 5 3 4 5 15 49
46 49 48 50 50 49 47 42 38 35 30 25 24 18 29 42 67 66 50 45 31 24 10 27 23 12 17 7 6 8 8 10 15 20 23 6 6 6 4 9 8 19 11 5 13 51 57
46 48 48 50 51 50 48 44 39 32 27 27 31 18 28 42 56 71 69 67 66 59 49 16 16 16 10 6 7 10 14 9 22 11 23 9 8 7 10 8 25 35 25 35 41 46 42
Wind_Direction_850mb
22 20 17 13 9 6 2 360 359 0 358 354 349 344 337 331 327 325 326 328 329 330 332 328 337 348 328 259 27 335 359 353 354 314 278 274 266 259 253 251 247 253 251 250 248 248 260
22 18 14 12 10 9 6 0 356 355 355 352 348 346 340 332 327 321 319 327 330 331 332 321 320 314 324 280 17 342 332 333 314 302 300 279 271 271 284 277 264 263 256 258 259 259 250
23 20 17 14 11 10 9 5 2 354 351 349 346 343 338 333 324 319 313 319 326 328 328 314 302 294 292 284 348 326 323 323 309 314 302 291 300 295 291 297 262 266 273 276 263 264 256
18 16 13 10 8 7 5 2 1 357 353 349 346 342 337 331 326 318 312 315 325 327 331 319 275 278 274 167 287 340 329 315 308 306 292 286 287 284 277 275 292 282 273 265 254 247 254
14 11 9 7 5 2 360 358 356 353 351 349 347 342 336 328 325 317 312 312 314 327 313 297 244 250 267 250 300 321 324 310 311 307 299 283 269 271 285 263 267 243 257 260 266 257 256
13 9 6 3 360 357 355 352 351 350 347 346 345 343 336 327 322 318 316 304 298 297 280 263 256 263 253 240 326 311 315 304 307 301 298 262 241 257 243 247 254 267 257 252 252 256 262
12 10 8 6 3 358 352 350 349 347 345 343 343 342 338 328 321 325 347 334 301 241 240 267 287 271 286 282 304 303 320 311 311 302 274 306 300 273 283 279 278 299 294 284 282 292 298
10 8 6 5 5 5 4 357 351 350 345 344 342 342 340 335 326 326 335 335 7 322 304 278 264 263 267 270 289 313 316 310 322 302 302 279 262 266 287 287 276 281 282 279 286 292 291
2 2 1 0 358 358 359 0 359 353 349 343 341 341 342 344 350 44 352 346 333 327 288 289 250 221 233 234 281 311 314 309 301 310 300 302 303 307 298 291 286 275 273 278 285 291 281
353 352 353 353 353 351 352 354 355 358 353 346 340 341 343 347 20 350 250 333 328 322 276 136 192 191 243 255 265 324 297 311 303 299 303 300 294 284 281 272 273 273 273 277 281 280 271
347 345 345 347 347 346 346 348 350 352 351 350 339 341 353 338 307 323 330 325 315 286 260 153 125 127 256 242 289 279 284 279 280 292 288 289 291 293 289 307 333 310 313 304 286 279 277
350 348 347 344 342 341 343 343 346 347 347 346 340 336 13 33 350 336 328 325 317 244 268 154 163 242 275 307 292 319 272 276 258 250 259 267 278 276 332 310 303 299 290 283 289 274 263
351 350 348 345 344 344 344 342 342 344 344 341 341 328 271 170 341 320 326 303 248 261 133 101 348 325 316 284 345 317 297 285 285 311 297 310 320 329 17 301 321 281 293 287 258 252 262
350 349 349 349 350 349 348 348 344 342 345 342 344 333 229 228 305 319 321 275 274 298 1 6 330 313 270 54 313 259 271 281 317 334 314 322 307 353 168 242 266 273 279 270 282 261 274
350 348 349 350 352 351 351 350 348 344 344 344 343 333 315 306 283 321 300 260 299 5 352 334 314 288 333 324 266 308 303 326 359 322 303 302 294 295 295 300 300 291 287 239 241 270 263
348 349 349 349 348 351 351 348 347 345 344 347 342 312 263 205 298 299 267 263 287 18 351 326 301 289 330 322 315 323 322 337 341 322 332 310 303 301 300 299 278 267 290 294 280 302 279
348 348 347 346 346 350 351 350 349 346 344 347 352 267 154 207 289 251 261 293 352 354 325 309 319 315 314 318 325 323 313 324 2 341 331 317 313 307 304 283 282 300 259 261 10 230 261
347 346 345 347 350 351 351 352 354 353 347 1 333 305 188 324 260 237 257 349 314 299 314 271 270 309 309 312 311 305 300 311 331 329 315 337 293 288 287 286 310 192 283 256 280 292 288
345 345 345 347 347 349 351 349 352 355 351 350 320 300 204 322 312 335 334 321 309 352 322 320 308 320 330 299 299 300 301 300 333 328 322 351 287 308 297 281 41 352 311 306 297 284 264
343 344 344 342 343 345 346 347 350 355 356 359 311 322 319 295 269 306 338 314 323 316 288 309 311 290 307 306 307 296 298 305 320 290 298 279 266 259 277 289 286 250 276 276 284 283 283
340 339 339 340 339 341 344 345 349 0 11 21 320 9 16 309 334 321 298 299 302 315 322 303 301 308 299 307 305 295 293 300 307 310 301 264 264 276 279 283 278 274 264 276 243 246 265
338 336 339 338 339 341 345 346 349 3 34 24 354 353 335 296 311 300 288 306 328 322 338 309 303 308 319 295 274 285 302 305 308 304 285 320 275 293 285 281 279 275 274 272 271 271 268
338 338 340 341 342 342 346 348 347 359 26 12 356 346 337 299 290 308 332 329 311 312 308 308 322 310 299 295 290 301 297 289 281 277 293 283 286 290 277 292 290 291 304 307 328 323 349
340 339 341 342 343 343 345 347 345 348 0 353 328 321 313 290 329 321 321 299 290 312 292 291 296 284 283 298 302 295 278 267 253 243 198 213 223 234 286 295 270 309 347 330 318 310 304
338 337 338 339 341 342 343 343 341 338 332 315 304 295 296 281 310 299 343 329 312 306 314 300 291 308 308 301 298 294 299 170 226 227 214 196 180 279 281 287 287 295 358 344 338 314 352
335 335 334 336 339 338 339 339 337 332 327 314 297 283 276 289 268 325 312 311 343 324 319 324 326 317 297 286 287 283 305 308 335 40 166 162 206 203 298 275 281 53 38 359 343 281 23
333 333 332 333 336 336 336 334 332 328 323 313 288 273 282 274 281 292 301 305 300 303 282 294 343 318 300 300 291 278 303 332 335 358 292 258 212 228 260 262 260 139 309 191 231 315 325
330 330 331 330 332 333 333 332 327 325 323 317 290 264 268 274 282 282 278 283 285 267 254 292 320 16 302 279 305 339 323 326 317 313 297 282 271 264 283 276 299 265 25 212 290 296 299
327 326 327 326 328 331 330 328 326 323 323 317 300 302 278 274 270 288 285 276 265 262 265 249 256 317 280 317 344 326 317 299 316 297 317 317 287 261 205 252 319 333 309 295 294 278 291